Wind_Gust
9 8 9 10 15 16 12 14 13 8 13 12 10 10 11 10 6 4 7 8 12 15 11 11 12 12 11 13 13 10 7 9 11 10 9 5 5 4 4 5 4 4 4 5 5 5 5 6 6 6 6 7 4 5 7 7 8 7 6 6 7 7 5 6 8 7 5 6 11 5 4 4 5 4 4 6 6 6 4 5 6 5 7 6 7 3
13 10 11 14 16 19 18 15 15 14 13 14 13 12 10 9 10 9 12 10 6 12 5 7 10 9 10 13 11 6 10 9 8 8 9 10 5 4 5 6 5 4 4 6 7 8 7 7 6 5 7 8 7 7 7 7 6 5 5 5 7 7 7 6 5 6 5 4 5 8 9 6 6 4 4 5 6 5 7 6 5 5 4 5 6 5
10 15 18 18 17 11 12 17 13 16 15 9 15 13 14 7 7 7 10 6 8 15 8 7 13 11 11 9 7 9 9 6 8 10 8 8 9 9 7 6 5 5 6 6 6 6 7 7 6 5 5 6 4 5 5 5 6 7 7 6 6 8 7 6 4 3 6 4 4 4 6 6 6 5 5 5 8 6 6 7 5 6 5 4 6 5
8 11 20 13 19 18 10 17 19 14 11 16 13 15 14 12 18 10 3 9 10 15 13 10 14 11 12 7 9 8 10 8 11 9 6 6 10 10 10 8 7 5 5 6 5 6 6 5 5 6 7 6 5 6 7 7 7 7 8 7 8 9 6 7 5 6 4 5 2 2 6 4 5 5 5 5 6 6 6 8 6 7 2 4 5 4
13 10 5 16 14 16 14 12 16 14 13 6 14 15 14 12 7 20 16 10 9 13 16 17 15 11 15 13 17 11 9 11 12 9 12 10 7 4 5 6 5 9 7 5 5 6 7 7 6 5 5 5 6 6 5 6 6 6 7 8 7 8 8 8 7 6 6 5 5 7 6 6 6 5 7 7 8 6 6 7 8 9 5 4 6 5
11 7 8 11 8 9 15 13 13 18 14 11 8 18 17 12 17 16 22 21 15 10 9 20 17 14 11 10 11 11 14 13 8 12 10 10 11 11 11 10 9 6 2 6 8 6 5 5 7 6 7 8 7 7 6 5 6 5 8 8 8 7 7 7 5 2 3 5 4 6 8 11 8 10 12 10 9 11 11 10 8 9 7 5 5 6
5 9 11 13 14 9 11 16 12 16 18 14 17 15 16 20 22 21 17 16 14 20 14 4 22 8 10 12 12 11 8 14 12 14 12 11 11 10 9 9 9 9 11 8 5 5 6 6 6 6 6 6 6 7 7 6 5 6 6 6 5 5 7 6 5 6 3 3 4 3 3 3 5 7 9 6 7 8 11 9 11 11 8 6 6 7
7 10 12 10 13 11 12 10 9 17 20 19 9 16 19 24 23 20 16 10 10 5 9 12 17 19 9 12 7 13 8 13 15 17 17 15 12 11 9 9 8 9 6 7 8 8 6 6 5 6 6 6 6 6 7 6 5 6 7 6 6 5 5 6 7 4 6 5 4 5 5 5 7 6 10 10 11 8 7 8 11 9 9 7 6 8
3 6 8 9 9 10 10 10 12 11 24 14 15 22 25 27 21 17 17 13 9 17 11 12 9 21 9 10 11 12 12 14 13 16 14 16 15 12 11 10 9 7 6 6 8 9 9 9 9 7 9 7 5 5 6 7 6 6 6 6 7 8 8 9 10 12 11 10 8 7 6 8 8 6 10 9 8 9 7 8 9 8 10 8 8 7
6 6 7 13 11 6 4 5 18 16 15 6 21 19 18 17 16 20 18 15 8 17 14 7 7 24 8 10 16 11 9 14 14 15 12 13 14 12 12 12 11 8 6 5 5 4 6 7 7 7 6 8 8 8 8 7 6 6 5 7 8 9 9 8 10 12 12 10 9 8 6 6 10 8 9 7 10 9 8 9 10 9 10 11 11 9
6 8 10 10 6 5 7 6 7 13 15 22 25 22 17 15 13 10 14 15 15 14 7 8 7 16 14 8 8 11 12 12 16 11 13 15 16 15 10 9 10 10 9 9 7 5 5 4 4 6 7 7 9 9 7 8 8 7 7 8 10 9 12 14 14 11 11 12 9 7 7 7 10 12 10 12 12 11 10 11 11 10 11 9 10 9
9 11 7 8 5 12 9 18 13 15 21 22 18 20 19 12 13 13 10 12 18 5 9 6 13 11 20 6 11 8 14 19 17 14 17 16 15 14 10 10 9 9 9 9 11 12 11 12 11 9 10 10 9 10 12 10 10 10 9 9 11 11 12 14 16 16 16 11 9 9 9 10 11 10 11 11 12 12 12 11 13 12 11 11 9 9
9 9 8 10 6 15 17 24 12 13 12 21 21 20 19 12 13 11 13 13 6 12 6 16 15 20 15 9 12 12 18 27 24 20 18 15 13 12 10 9 8 8 9 11 10 10 11 10 11 11 11 11 11 11 10 11 9 9 10 10 10 12 10 11 15 18 18 15 12 16 15 15 14 11 10 10 11 10 12 12 13 13 14 12 13 12
8 10 10 11 10 7 11 28 16 12 11 24 24 17 20 17 10 10 5 9 10 10 8 16 12 18 5 7 7 12 14 26 25 19 14 11 11 11 10 9 10 9 9 9 9 10 9 10 9 8 8 9 10 10 12 11 11 11 10 10 9 10 10 9 12 18 18 19 19 22 21 17 14 12 10 10 11 12 11 11 11 11 12 13 13 14
8 10 10 9 8 7 7 16 28 22 21 25 14 27 22 24 28 16 14 17 17 12 9 5 11 10 8 9 13 8 18 17 18 17 13 10 9 9 10 11 10 10 9 9 10 9 9 10 8 8 9 9 10 11 12 11 11 10 11 11 11 12 12 11 10 15 19 19 20 14 15 14 12 12 12 11 10 13 13 12 12 12 11 11 13 14
4 12 13 8 7 6 8 3 9 16 13 6 11 12 18 13 15 16 15 20 14 13 14 14 11 6 10 6 12 13 17 17 16 16 13 12 10 11 12 12 9 9 10 10 10 12 12 10 9 10 10 9 9 10 11 12 11 12 10 9 9 10 12 12 12 12 18 20 16 14 15 15 14 13 13 12 12 14 11 13 13 14 13 12 13 14
9 8 6 13 6 7 6 7 8 13 23 12 12 11 7 6 26 21 16 11 14 22 14 8 14 15 10 15 13 14 14 16 20 16 12 11 10 11 11 9 8 8 9 11 10 10 12 12 11 10 9 10 10 11 11 11 11 10 11 12 12 12 12 12 12 12 12 13 12 18 15 14 15 15 16 16 15 17 14 12 13 13 14 13 14 15
11 9 9 9 6 5 4 7 9 9 12 23 16 11 9 8 15 28 22 9 13 16 8 6 12 13 7 10 6 16 13 16 17 12 10 8 7 12 8 8 9 9 7 8 9 8 8 8 10 10 9 8 8 9 11 12 10 9 9 9 10 12 14 13 13 15 14 15 16 16 17 17 15 15 15 15 16 16 16 16 15 15 15 14 14 14
9 9 10 5 6 13 12 9 15 11 10 16 20 15 18 10 13 10 26 12 14 13 11 6 5 8 9 13 11 14 15 13 15 13 11 9 9 11 11 10 10 10 13 13 11 12 12 11 11 10 10 9 10 8 8 9 10 10 9 8 8 10 10 9 10 12 14 14 14 13 14 14 16 16 15 14 15 15 15 17 18 18 18 17 16 16
11 12 11 10 6 7 10 14 9 9 18 17 14 13 3 18 11 15 9 13 21 13 10 6 8 10 13 18 20 17 12 13 13 11 9 9 13 14 11 11 12 12 11 12 13 13 12 11 10 10 10 11 10 9 9 10 12 14 13 14 14 14 14 14 15 13 13 13 14 16 16 17 16 16 15 15 15 17 16 16 17 18 18 20 19 17
5 7 8 14 9 9 13 13 6 8 15 13 18 11 12 11 5 16 9 9 19 25 12 17 9 14 11 10 11 17 14 13 15 14 11 14 13 10 9 10 10 11 12 13 13 14 14 12 13 14 12 12 11 11 12 13 11 10 12 13 12 12 14 14 13 12 12 12 14 15 17 17 17 18 17 17 17 17 17 17 17 18 17 18 19 19
9 8 9 7 15 9 9 8 5 7 8 11 13 8 17 20 13 10 5 12 14 22 25 20 15 11 13 13 14 12 12 13 12 15 14 13 12 10 9 8 8 10 8 8 9 9 12 11 14 15 15 15 17 16 15 13 14 15 14 12 14 15 16 13 15 12 12 11 13 15 15 16 15 17 17 17 18 18 19 18 18 17 17 17 18 17
9 10 17 12 7 10 4 9 7 10 18 13 12 7 8 7 16 17 17 9 15 12 13 11 19 10 7 7 10 9 12 13 10 14 15 12 12 10 9 8 8 7 7 9 9 10 10 10 10 12 14 14 14 14 14 13 13 13 12 14 13 16 15 13 13 12 11 13 15 17 16 17 17 17 17 18 18 19 19 19 18 17 17 18 17 17
10 15 14 6 10 10 9 10 14 10 11 15 13 7 11 9 7 15 19 17 22 9 13 9 13 11 6 8 13 13 8 9 9 13 15 11 10 10 9 10 9 10 10 10 12 12 12 11 13 17 17 18 17 14 14 13 15 16 16 16 17 19 17 18 17 16 16 15 16 14 16 17 17 18 18 18 17 18 18 18 18 17 17 18 17 18
10 7 17 10 10 12 14 15 18 15 16 12 7 8 5 11 15 13 16 9 22 11 10 17 14 11 8 8 8 12 13 13 12 8 13 16 10 10 9 8 8 9 11 13 13 13 15 17 17 15 15 16 16 16 16 16 15 16 16 17 17 16 15 17 16 16 16 16 18 19 19 19 17 18 18 18 17 17 18 18 18 18 18 19 20 19
12 7 12 17 16 11 10 7 10 8 5 6 6 9 14 18 21 15 11 8 15 8 8 18 17 9 7 8 10 10 10 11 9 11 10 10 10 9 8 8 10 10 10 10 11 14 13 12 13 15 13 14 14 13 13 14 14 14 14 16 13 16 17 17 16 15 15 16 18 18 19 18 18 19 18 17 17 17 17 18 19 19 19 19 20 19
12 7 9 13 18 21 16 12 8 7 9 18 6 14 9 9 14 14 13 13 16 12 14 8 23 21 11 11 12 10 13 15 14 12 13 11 8 9 8 11 10 11 10 10 8 9 13 15 13 12 12 12 12 12 14 15 15 14 15 17 16 16 15 16 15 15 16 16 16 18 18 18 17 17 16 16 16 17 18 20 19 20 20 19 18 18
10 10 4 11 6 11 9 4 6 11 18 9 16 8 12 9 6 13 17 17 19 28 11 10 10 24 19 14 12 12 11 11 10 9 8 9 10 12 13 12 11 11 9 10 12 13 12 10 12 12 13 14 15 16 17 16 15 13 13 15 16 16 16 17 15 15 16 16 18 18 18 16 15 15 16 16 16 17 18 19 20 20 19 19 19 19
12 9 2 5 7 7 9 20 21 17 11 14 14 14 12 10 16 18 13 17 11 20 26 14 16 20 16 15 14 15 17 17 11 11 9 10 13 14 15 13 11 9 10 12 11 11 11 12 10 12 13 14 15 16 15 16 17 17 16 16 15 15 16 14 15 17 16 17 18 16 15 15 14 14 16 18 20 20 20 19 19 19 20 19 19 19
16 6 4 8 12 12 15 18 18 21 12 17 15 12 13 16 13 19 11 4 12 15 20 21 18 16 12 13 14 15 9 11 10 9 13 16 14 13 13 12 13 13 13 13 12 11 10 11 12 12 14 14 14 14 14 14 15 14 14 15 15 15 15 14 16 16 17 18 16 15 16 16 15 17 16 20 20 20 20 20 20 19 20 20 19 19
14 9 7 7 13 10 11 14 16 18 18 17 9 15 17 18 16 16 20 19 23 19 14 16 18 15 5 7 9 6 10 10 16 17 15 13 15 14 14 13 13 14 14 14 13 12 11 12 13 13 14 12 12 10 10 9 9 11 13 13 13 13 13 12 15 15 15 16 15 15 17 18 18 17 19 16 19 21 21 20 20 20 21 21 21 20
13 7 7 11 18 9 9 17 15 17 18 16 10 13 20 22 18 11 25 13 20 18 15 16 18 17 9 7 9 10 12 16 17 14 13 12 13 15 14 13 13 13 13 12 12 11 12 11 11 12 12 12 12 12 13 13 12 15 15 12 13 11 12 15 15 15 14 15 16 18 19 18 18 19 18 18 20 20 20 19 21 21 21 22 22 22
7 18 11 11 17 10 5 18 19 16 17 15 7 12 8 7 10 8 7 7 20 28 23 21 19 19 16 12 15 7 13 12 14 14 15 11 11 13 14 12 12 12 11 11 12 10 9 8 7 8 10 11 13 14 14 13 15 15 14 15 13 14 17 17 17 17 18 18 19 19 19 19 19 19 20 20 19 20 21 21 21 23 21 21 19 18
5 14 11 6 18 13 9 6 9 13 10 9 11 7 8 20 19 18 13 12 11 12 18 16 22 15 13 14 19 16 16 18 14 6 6 18 17 13 11 10 9 9 10 11 10 10 8 9 10 9 7 8 11 12 12 15 14 13 14 15 15 17 15 16 17 19 21 20 20 19 20 20 20 20 19 19 21 21 20 21 21 20 20 20 22 21
10 11 7 6 22 19 6 8 14 7 14 9 11 8 9 15 16 16 8 12 13 9 18 17 16 14 13 13 15 15 14 13 13 15 12 9 13 15 14 10 9 9 11 11 12 11 8 7 8 10 11 11 9 10 14 16 15 13 16 14 15 16 16 15 16 18 18 20 21 21 22 21 20 19 19 20 21 21 21 20 21 22 21 20 18 17
11 15 11 11 9 10 8 7 13 13 9 7 9 11 11 17 19 22 12 6 6 13 20 23 19 15 12 15 14 16 20 17 17 13 10 9 10 14 13 11 8 10 10 8 9 9 8 8 7 7 7 8 12 13 15 14 11 12 14 13 14 14 15 15 18 19 18 18 18 19 19 18 18 19 19 20 20 21 21 21 20 20 21 21 20 19
18 11 16 11 7 17 12 9 8 8 9 7 11 13 19 20 17 23 18 18 14 9 17 20 13 14 17 17 19 18 17 20 19 13 7 10 10 10 13 10 9 8 8 7 8 9 7 7 9 7 8 10 11 14 14 13 14 13 14 17 16 15 16 17 19 19 18 17 19 19 18 18 18 18 18 18 19 21 21 20 21 20 20 22 21 19
6 16 11 18 9 11 14 10 10 8 10 16 15 11 3 3 9 12 21 8 4 6 9 23 22 21 20 18 18 18 17 26 16 8 5 4 9 11 8 8 7 8 8 7 9 10 11 10 8 9 11 11 14 13 11 10 12 14 16 15 15 16 17 19 19 17 17 17 18 18 18 18 18 18 18 18 19 19 20 20 19 21 19 17 18 19
13 15 12 16 13 8 10 15 12 14 18 16 15 10 5 13 15 9 17 13 12 14 14 23 25 23 26 25 20 15 18 19 18 13 10 6 8 10 12 8 7 8 8 7 8 10 10 9 9 9 12 14 15 13 9 10 13 17 15 14 14 15 18 18 17 17 18 17 17 17 17 17 17 17 17 18 19 18 18 18 17 17 20 21 19 18
11 9 9 13 10 8 13 10 10 18 8 5 13 7 10 9 10 15 11 17 15 17 19 23 26 24 20 22 24 22 24 19 18 18 10 10 10 8 11 11 9 8 9 8 10 9 9 9 13 16 14 13 10 9 12 10 16 16 15 14 14 18 17 17 16 15 13 14 16 16 18 17 18 18 17 18 19 19 18 17 18 20 21 22 19 19
6 4 12 14 12 6 10 8 8 13 13 6 7 7 9 5 14 12 13 19 14 19 22 24 25 25 24 21 20 26 16 14 20 18 14 10 13 10 8 7 8 8 9 9 9 8 13 13 14 13 10 9 11 11 10 12 17 16 15 16 18 16 15 14 14 14 14 16 17 18 18 18 17 19 18 17 17 17 17 17 19 17 18 21 23 22
3 8 3 9 8 9 10 12 14 12 15 9 2 11 9 14 9 16 19 8 23 19 21 23 22 20 25 30 26 16 16 17 21 17 15 12 12 8 7 8 10 10 7 8 9 10 13 12 13 13 14 12 13 11 11 13 17 15 17 19 19 14 13 13 13 14 16 18 18 17 18 19 21 19 18 18 20 21 20 17 17 17 17 18 19 20
19 15 8 9 10 9 9 9 5 9 11 10 15 6 5 14 17 15 14 7 13 23 23 18 23 19 21 16 14 18 19 17 20 18 14 11 12 11 10 10 10 10 10 10 10 7 12 15 15 13 10 12 11 12 12 14 16 15 17 20 15 13 13 13 13 13 14 15 17 18 18 18 19 20 19 20 20 18 19 18 19 17 18 18 18 19
8 17 9 9 17 16 10 15 18 15 12 18 28 25 22 16 13 16 24 13 8 18 21 20 14 19 19 25 19 17 18 18 12 15 13 10 10 8 7 7 7 10 9 7 8 7 13 14 11 13 11 12 13 14 13 15 16 16 18 16 13 13 14 14 14 13 15 16 16 18 19 19 19 19 19 19 20 18 19 20 21 18 18 18 18 19
12 11 19 17 14 18 17 17 10 5 9 11 7 5 6 6 12 14 20 25 22 12 12 23 20 13 18 21 20 21 18 14 17 14 16 11 11 10 11 8 9 10 10 10 8 7 10 14 12 13 13 13 13 13 15 15 17 17 17 13 12 14 14 14 14 15 16 16 17 19 19 19 19 20 20 19 18 19 21 19 21 22 20 19 20 21
3 8 7 19 10 6 7 9 4 6 8 11 10 5 16 10 7 14 21 19 9 17 20 24 18 19 17 22 25 13 19 17 17 13 12 10 10 7 8 8 8 9 9 10 9 9 11 11 12 13 13 14 12 14 15 16 16 16 11 11 13 13 12 13 15 15 16 16 17 18 20 21 20 21 21 21 20 18 18 18 21 22 19 20 21 24
7 6 8 15 8 12 14 5 7 8 5 12 13 10 11 10 11 11 16 17 16 15 15 16 24 23 23 22 25 23 17 15 16 12 11 11 12 11 10 11 9 9 12 11 8 10 11 11 13 13 13 14 12 14 14 13 13 11 10 13 13 12 12 13 14 14 14 17 18 18 20 20 22 23 21 20 21 20 20 19 19 20 18 18 19 21
7 8 16 7 8 10 13 8 6 5 6 7 16 19 15 13 11 10 16 15 16 14 18 17 18 18 17 19 20 24 19 14 19 15 13 12 13 12 11 12 11 10 6 8 8 10 11 13 12 12 13 15 13 12 12 12 12 12 12 13 14 12 13 14 15 15 14 16 17 18 19 18 20 21 19 19 20 21 22 20 19 21 22 22 21 21
13 11 11 11 12 7 8 6 7 10 9 5 6 8 16 20 20 15 16 19 19 21 16 11 14 22 20 20 18 23 20 12 14 17 16 12 11 11 12 11 9 11 11 11 7 9 13 12 14 13 15 13 9 10 11 11 11 12 12 13 14 14 14 15 13 14 12 15 16 19 19 18 17 18 18 18 19 18 15 17 20 20 17 17 19 18
14 11 10 16 19 14 20 20 19 21 10 13 14 15 14 16 24 20 17 19 20 21 19 20 12 10 17 20 22 23 24 16 12 14 16 15 14 11 10 11 10 11 10 8 10 12 14 13 14 14 14 10 9 10 11 11 11 11 11 12 12 14 16 16 15 14 14 15 16 18 18 17 17 16 18 18 19 20 23 14 13 14 17 18 18 20
16 19 22 19 22 20 17 23 24 15 17 21 21 16 18 18 25 24 22 21 17 20 23 24 20 14 13 9 13 22 20 21 15 13 15 12 13 13 14 15 14 12 12 11 15 14 15 14 14 14 13 9 8 10 10 11 11 12 12 12 12 13 14 14 15 14 14 15 16 18 17 16 16 17 17 17 18 19 21 23 25 14 14 15 17 17
Wind_Speed
1 3 5 6 8 9 3 3 5 5 8 7 6 6 6 6 2 1 2 2 3 4 6 3 4 5 5 4 4 4 3 6 7 6 4 2 2 3 3 3 3 3 2 4 3 3 4 4 3 3 3 3 2 3 3 3 3 3 2 3 4 4 3 4 5 4 3 3 6 2 3 2 3 3 2 3 4 4 3 3 2 2 3 3 3 1
3 2 5 8 5 6 6 7 10 9 9 8 8 8 6 5 5 0 1 1 2 3 3 3 6 5 4 4 4 3 6 6 5 5 6 5 3 3 4 4 4 2 2 4 5 5 5 4 4 4 4 5 5 4 4 3 3 3 3 3 4 4 4 3 2 2 3 2 2 2 5 3 4 2 2 3 4 3 4 4 2 1 3 3 3 1
2 3 9 4 7 6 5 5 8 11 9 5 8 6 7 2 3 4 3 3 3 7 2 4 8 7 6 4 5 5 2 2 2 2 1 4 6 4 3 2 2 3 3 3 3 3 4 4 4 3 3 3 1 3 3 3 4 5 5 4 3 4 4 3 2 1 3 2 2 2 3 2 3 2 3 3 5 3 4 4 3 1 1 2 3 2
3 5 10 4 7 9 3 5 13 9 6 9 8 7 6 5 6 1 2 2 6 4 4 2 9 6 7 3 5 5 6 2 2 2 4 4 5 5 4 1 2 2 3 4 3 4 4 4 3 4 4 3 3 4 5 5 5 4 5 5 5 6 4 4 3 2 3 3 2 2 2 2 3 2 1 3 4 3 3 5 3 3 2 2 3 2
6 5 2 9 8 10 7 3 11 8 6 1 4 7 6 6 1 4 4 2 2 4 4 4 7 5 8 7 8 7 4 6 7 6 8 7 4 3 2 2 3 3 2 2 4 4 4 5 4 3 3 2 3 3 3 3 3 3 5 5 4 5 5 5 4 4 4 3 3 4 3 3 3 2 4 4 5 4 3 4 4 6 3 3 4 3
7 4 3 7 4 6 8 3 5 10 7 2 3 5 11 7 11 8 5 6 3 0 2 3 5 5 7 6 7 6 7 8 5 8 7 7 7 7 7 6 5 3 1 1 1 2 3 3 5 4 4 5 4 4 4 3 3 3 5 5 6 4 4 5 3 1 2 2 1 3 5 6 5 6 6 6 5 7 7 6 5 6 5 4 3 4
1 1 0 5 7 5 5 4 4 6 7 7 5 5 8 8 11 10 7 5 3 2 4 1 4 1 4 7 7 6 5 9 7 9 8 7 7 6 6 6 5 5 7 3 1 0 2 3 4 4 4 4 4 4 4 4 3 3 3 4 3 4 4 4 3 2 0 1 1 1 1 2 3 4 5 4 4 5 6 5 7 6 5 4 4 4
1 4 5 6 7 6 4 2 3 6 9 4 2 9 10 12 10 7 7 4 3 1 1 7 5 5 2 6 4 7 5 8 10 11 11 10 9 7 6 6 5 6 4 4 5 5 2 1 0 2 4 4 4 4 4 4 4 4 4 4 4 3 3 3 3 3 4 4 3 4 3 2 3 3 6 6 6 5 4 5 6 5 6 5 4 5
1 1 4 4 3 4 5 5 7 6 7 1 1 9 8 10 7 7 8 6 1 4 4 6 4 5 2 4 5 5 7 8 8 9 8 10 10 8 8 6 6 5 4 4 5 6 6 6 5 3 3 3 3 3 4 4 4 3 3 4 4 5 4 6 7 6 5 3 2 2 2 5 4 3 5 5 5 5 5 6 6 5 6 5 5 4
1 2 2 7 5 1 1 2 12 10 8 1 13 12 11 10 6 7 5 5 1 6 2 3 3 5 1 5 7 6 5 7 7 8 7 7 8 8 7 8 8 6 4 4 3 3 4 5 5 5 4 4 4 3 2 3 3 4 3 5 5 6 5 5 5 4 4 4 4 5 4 4 6 5 5 4 6 6 5 6 6 6 6 6 6 5
2 4 6 4 1 0 4 4 2 7 10 10 16 12 10 8 4 3 6 3 4 5 2 5 3 3 0 3 2 3 3 3 6 5 5 8 9 10 7 6 6 6 6 5 5 4 4 3 3 4 5 5 6 5 5 5 5 5 5 5 7 6 5 6 6 6 7 5 4 5 5 5 7 7 6 7 7 7 7 7 7 6 6 5 6 5
4 2 1 1 2 4 5 7 7 5 13 13 4 8 9 6 5 3 3 6 3 1 5 2 1 1 4 1 4 3 3 3 2 4 6 8 7 7 7 6 6 6 5 6 7 8 7 8 8 6 7 7 6 6 7 6 6 6 6 6 8 8 8 7 5 6 7 6 6 5 5 7 7 7 6 7 8 7 8 7 7 7 7 6 6 5
5 4 3 3 1 11 7 13 5 6 3 11 10 9 9 1 4 2 5 2 1 1 1 3 2 3 3 2 3 4 3 3 3 3 3 4 6 6 7 6 5 5 6 7 6 7 7 7 7 8 7 7 8 7 7 7 6 6 6 7 7 8 7 7 7 7 7 7 7 6 6 6 6 6 6 6 7 7 7 7 8 8 7 7 7 7
2 4 6 5 4 2 5 13 4 5 1 12 11 7 8 4 1 2 1 1 2 3 4 2 2 2 1 3 2 3 3 3 3 2 4 4 4 5 6 5 5 5 6 6 6 6 6 6 6 5 5 6 6 7 8 7 7 7 6 7 6 7 7 6 6 7 7 8 8 7 7 7 6 7 6 6 6 7 6 6 6 6 6 7 7 8
2 3 3 4 1 1 1 8 16 11 11 10 5 13 11 9 6 4 3 3 5 5 3 3 2 1 0 2 1 2 3 2 1 5 4 4 5 4 4 4 6 7 6 6 6 5 5 6 5 5 6 6 6 7 7 7 7 6 7 7 7 8 8 7 6 6 7 7 7 7 7 6 6 6 7 6 6 6 7 7 7 7 6 6 7 7
1 2 5 4 3 1 5 0 4 9 6 2 1 5 7 4 4 5 4 5 2 2 2 5 0 1 2 2 3 1 2 3 4 7 6 8 7 6 7 7 6 5 6 6 6 7 7 5 6 6 6 6 6 7 7 8 7 7 6 5 6 6 7 8 8 8 9 9 8 9 10 9 8 7 7 7 7 7 7 8 8 8 7 7 7 8
2 3 3 8 1 5 3 1 1 5 6 4 2 3 2 2 11 6 1 3 3 5 0 0 1 4 4 3 2 3 3 3 6 7 7 7 6 5 6 5 5 5 6 6 6 6 7 7 7 5 6 6 7 7 6 6 5 6 6 7 8 7 7 8 8 7 7 7 8 9 8 9 10 10 10 9 10 10 8 7 7 8 8 8 7 8
3 2 4 3 3 1 3 3 5 5 3 8 1 5 2 3 5 7 4 2 4 2 1 0 2 3 2 1 2 1 3 2 5 5 5 5 3 6 4 4 4 5 4 4 5 5 5 5 6 7 6 5 6 6 7 7 5 5 5 6 7 8 9 9 8 9 8 10 10 11 11 11 10 9 9 9 10 9 9 10 9 8 8 8 8 8
3 2 3 1 3 6 2 2 5 6 4 8 9 7 5 1 1 3 6 1 1 0 1 2 1 2 4 2 0 2 1 2 4 4 4 3 4 3 3 4 4 4 7 8 7 7 8 7 7 7 7 6 6 5 5 5 6 6 6 5 5 6 5 5 6 8 9 9 8 8 9 9 10 10 9 9 9 9 9 10 10 10 10 10 9 9
3 3 3 3 0 3 3 4 2 3 10 9 8 3 1 6 3 4 1 3 7 2 1 2 1 3 5 4 5 4 3 3 4 1 1 1 1 1 2 3 4 6 5 5 6 6 6 7 7 7 7 7 6 6 6 7 8 10 8 9 9 9 9 9 10 8 9 8 8 10 10 11 10 10 9 9 9 10 10 10 10 11 11 11 10 10
1 1 2 5 4 2 1 3 1 3 7 0 3 2 3 3 1 6 2 2 4 6 3 3 1 5 5 4 6 6 5 4 3 3 1 1 1 1 1 3 4 5 6 5 6 6 8 8 8 9 7 7 7 7 8 8 8 7 8 9 8 8 9 10 8 8 7 7 9 10 11 11 11 12 10 11 11 11 11 10 10 10 10 10 11 11
2 2 4 2 6 3 3 3 2 3 4 3 6 3 9 9 4 3 1 1 2 5 4 5 5 5 6 1 5 7 5 6 3 3 3 1 0 1 2 3 4 6 5 5 6 6 7 7 8 8 9 10 10 10 10 8 9 10 9 8 9 10 10 9 9 8 7 7 8 10 10 11 10 10 11 11 11 12 11 11 11 10 10 11 11 10
3 3 8 4 1 1 1 3 1 1 3 2 4 1 3 2 6 6 3 4 3 1 4 3 4 3 1 1 4 6 6 5 4 4 4 2 1 0 2 2 4 5 5 5 5 6 6 6 5 7 8 9 9 9 9 8 8 8 8 9 8 10 10 8 8 7 7 8 10 11 11 11 11 11 12 12 11 12 12 11 11 10 10 11 10 10
6 4 5 2 5 5 4 3 1 2 1 3 5 3 1 2 2 4 4 7 7 3 2 1 0 3 3 3 3 5 5 6 5 3 3 3 1 1 3 4 4 6 5 5 5 5 5 6 7 9 9 9 9 9 9 8 9 10 10 10 10 12 12 12 10 10 10 10 10 10 10 10 10 12 12 12 11 12 12 11 11 10 11 11 10 10
1 1 8 3 3 4 5 4 2 1 4 3 1 2 1 2 7 4 6 3 7 6 5 7 5 4 1 3 3 6 7 7 5 3 3 2 1 2 3 3 3 4 6 7 7 7 10 11 11 9 9 10 10 10 10 10 10 10 10 10 10 10 10 10 9 10 10 10 12 12 12 13 11 12 12 11 10 11 12 11 11 11 11 11 12 12
4 3 3 6 4 3 1 2 3 1 0 1 1 2 3 4 9 5 3 0 3 3 3 3 2 4 1 4 4 5 7 6 3 3 2 0 1 3 2 3 4 5 6 6 7 9 9 6 7 9 8 8 8 8 8 9 8 8 8 9 7 9 9 9 8 8 9 10 11 11 13 11 12 12 12 11 11 11 11 11 12 12 11 11 12 12
3 2 3 5 8 9 8 5 2 2 2 2 1 2 1 2 2 5 5 4 6 5 4 4 6 7 4 6 5 6 7 8 6 3 3 3 2 2 3 4 4 5 6 7 5 4 6 9 9 7 7 6 6 6 7 8 9 8 8 10 9 8 8 8 8 8 9 10 10 11 11 11 11 10 10 10 10 9 11 12 12 12 12 11 11 11
4 4 2 5 3 2 3 2 1 1 3 1 2 0 1 2 1 3 5 3 5 10 2 2 5 12 10 7 7 8 7 7 6 5 4 4 3 4 4 4 6 6 5 5 6 7 7 5 6 8 7 8 8 7 8 7 8 8 8 9 9 9 9 8 8 9 10 10 11 11 11 10 9 9 10 10 10 10 11 11 12 12 11 11 12 11
4 3 1 2 4 4 1 1 1 3 2 2 2 1 0 2 1 2 0 2 5 6 8 7 10 10 9 9 9 10 10 10 7 7 6 5 5 5 5 6 6 5 5 7 5 5 6 7 6 6 7 7 7 9 8 8 8 7 8 8 8 8 9 8 8 9 9 10 11 10 9 9 8 8 9 10 10 11 11 11 11 12 12 11 11 10
6 2 0 2 5 8 8 6 4 6 3 4 5 3 2 5 3 4 4 2 2 0 2 11 12 5 3 6 8 8 5 7 5 5 4 5 5 5 6 6 6 5 5 5 4 4 5 5 5 5 6 8 8 8 8 7 7 7 7 8 8 9 9 8 8 8 10 10 9 9 9 9 9 10 10 11 11 10 10 10 11 11 12 12 11 11
5 1 1 1 4 5 7 8 8 4 6 5 4 4 5 6 7 3 3 4 8 7 6 8 9 4 1 4 4 3 6 6 7 7 5 5 5 5 7 6 5 5 4 4 4 5 4 5 5 6 7 7 7 6 5 4 4 5 7 8 8 8 7 6 8 9 9 9 8 9 9 10 10 9 11 10 10 10 11 11 10 11 12 12 12 12
6 1 2 2 5 2 4 7 5 6 10 7 3 2 3 5 5 1 3 2 4 5 5 8 6 4 3 5 5 6 8 10 10 7 6 5 4 6 7 5 5 4 4 4 4 5 6 7 7 7 6 6 6 6 7 7 6 8 8 7 8 6 5 7 8 8 9 9 10 11 11 11 11 11 11 11 12 11 10 10 11 12 12 12 14 12
2 7 3 3 8 1 2 3 4 4 6 3 1 3 3 1 1 0 1 2 1 12 10 8 10 4 7 7 9 4 8 6 7 7 7 4 4 5 7 6 5 4 4 4 5 5 5 5 4 5 5 5 7 7 7 5 8 9 7 8 7 6 9 9 9 9 11 11 11 12 11 11 11 11 11 12 11 10 11 11 12 12 12 13 11 11
2 7 3 1 6 3 0 4 2 3 1 2 2 2 3 1 4 5 3 3 5 2 3 2 4 9 8 8 12 10 11 10 8 3 1 6 9 5 5 4 5 4 3 4 4 4 4 3 5 5 5 5 5 6 4 6 6 5 4 5 6 8 8 9 10 10 10 10 11 11 10 11 12 12 12 11 11 11 11 12 12 11 10 10 12 12
6 5 3 1 6 4 0 3 4 0 5 2 5 4 5 3 3 2 1 6 6 1 2 8 7 8 5 5 7 8 6 5 4 5 5 2 3 7 8 6 5 5 5 5 4 4 4 4 5 6 7 7 6 5 6 7 6 4 8 8 8 8 9 9 9 10 10 10 10 10 11 11 11 11 11 11 11 10 11 11 11 12 11 10 9 10
5 8 3 4 3 3 2 2 3 4 3 4 4 3 3 5 5 8 5 2 4 2 5 6 6 6 6 7 6 5 8 7 6 4 3 2 2 5 8 6 5 5 5 4 5 4 5 5 5 5 5 3 5 6 6 5 4 7 7 7 8 8 8 8 10 11 11 11 11 11 11 11 10 10 10 11 11 11 11 12 11 11 11 10 11 10
11 5 6 4 1 5 4 3 3 3 4 1 1 2 6 5 6 8 5 9 9 4 5 9 6 7 7 6 8 8 6 7 6 2 2 1 1 1 4 6 5 5 5 3 5 5 4 5 6 5 4 5 7 7 7 5 6 8 9 10 9 8 9 10 11 11 11 10 11 11 11 11 11 11 11 11 11 11 11 11 11 11 9 11 11 10
3 9 4 8 1 4 6 2 1 3 2 7 9 3 1 1 3 1 5 2 2 4 6 12 12 10 9 8 9 8 8 10 5 3 3 1 1 3 3 3 3 3 3 4 4 5 6 5 6 5 6 7 8 7 5 6 6 8 9 9 9 9 10 11 11 10 10 10 11 11 11 11 11 11 10 11 11 11 10 10 9 10 9 9 10 10
8 8 7 7 5 3 3 4 3 4 6 7 7 5 2 1 6 2 4 4 5 9 9 11 13 12 15 14 10 9 9 8 9 7 6 4 3 3 5 3 3 3 3 4 5 7 6 6 6 5 7 8 8 7 6 5 6 9 9 8 9 9 10 10 10 10 11 10 10 10 10 10 10 10 10 11 11 10 10 10 9 9 9 9 9 9
7 3 4 6 4 1 6 3 3 4 1 1 5 2 2 3 5 3 2 6 7 11 12 11 15 14 12 14 15 13 12 8 8 9 6 6 5 4 4 6 5 4 4 4 6 6 6 4 7 10 10 8 6 5 5 4 8 9 8 8 7 9 10 9 8 8 8 8 9 9 9 8 10 9 10 10 10 10 9 9 9 10 9 10 8 8
2 2 5 7 6 2 5 1 3 4 4 4 3 3 3 2 6 4 6 5 5 12 13 14 15 16 15 13 11 12 9 3 4 10 9 7 7 5 3 2 3 4 6 6 6 5 8 8 9 8 6 4 4 4 4 5 9 9 7 7 9 10 9 8 7 8 8 8 8 9 9 9 9 10 9 9 9 9 9 8 9 9 10 10 10 10
1 3 1 5 4 4 4 3 5 4 6 3 1 6 4 6 2 7 9 2 12 12 12 14 14 13 16 18 14 4 3 5 14 11 10 8 8 6 5 5 6 6 5 5 6 6 8 7 7 7 7 6 6 5 6 7 8 6 7 8 10 9 8 7 7 7 8 9 9 8 9 9 10 9 8 9 9 10 9 9 9 9 10 9 9 11
7 4 3 4 2 3 2 2 2 1 1 6 9 3 0 4 7 7 2 1 6 13 14 9 13 12 11 8 4 6 9 11 13 12 9 8 8 7 6 6 7 7 7 7 6 4 7 8 8 7 4 4 5 7 7 7 7 6 6 9 8 8 7 7 7 8 8 8 8 8 9 9 10 9 8 9 10 9 10 9 9 10 10 10 10 11
3 3 1 2 6 6 3 3 4 5 6 10 15 11 9 8 2 6 6 4 3 7 12 11 8 11 11 12 10 9 11 11 8 10 9 6 6 4 4 5 5 7 6 5 5 5 7 8 6 5 4 5 6 7 6 6 6 6 8 9 7 7 6 7 7 7 8 7 8 8 9 9 9 9 9 11 10 10 9 10 10 9 10 10 10 10
5 3 7 6 5 5 5 6 4 2 4 6 1 2 1 3 3 8 5 9 10 6 5 12 12 8 9 10 10 13 10 9 11 9 11 8 7 7 7 6 6 7 7 7 6 4 5 7 6 5 6 6 6 6 5 5 6 6 9 7 7 8 7 7 7 7 8 9 9 9 8 8 8 9 9 9 9 10 11 11 10 9 10 10 10 10
1 1 1 5 2 2 2 5 2 2 1 5 0 1 0 1 3 4 8 8 6 10 12 12 11 12 10 11 14 6 10 10 11 8 7 7 7 5 5 6 6 6 6 7 6 5 6 6 6 6 6 5 5 5 5 5 6 8 6 6 7 7 7 7 7 7 9 8 8 9 8 8 8 8 9 10 9 9 8 9 10 9 8 8 9 9
1 1 1 2 1 4 4 0 0 2 2 2 1 0 1 1 2 4 5 7 8 6 6 7 14 14 14 13 15 13 11 10 10 8 7 7 8 7 7 7 6 6 8 8 6 6 6 6 6 5 4 4 4 5 5 5 5 4 5 6 7 7 7 6 6 7 7 8 8 8 8 9 8 8 8 9 9 9 9 9 9 9 9 7 9 9
2 3 5 0 4 4 1 1 3 3 3 3 2 4 3 3 4 3 2 2 6 6 7 10 9 9 10 10 12 15 12 9 12 10 8 7 8 7 7 7 8 6 4 5 5 6 6 6 6 4 3 4 3 4 4 4 5 5 6 6 7 7 7 5 6 7 7 8 7 7 8 8 12 11 8 9 9 9 9 10 10 9 8 8 9 9
3 5 3 5 3 2 2 4 3 1 0 2 4 4 3 4 7 6 6 8 9 13 10 6 5 13 12 12 11 14 13 8 9 11 10 8 7 6 7 7 6 7 8 8 5 5 7 5 5 3 3 3 3 3 4 4 5 6 7 7 6 6 6 5 5 6 7 6 7 7 7 7 8 9 9 9 9 9 8 9 9 9 8 10 10 9
5 4 2 4 4 2 8 7 8 5 3 7 9 8 6 4 7 10 9 8 9 12 12 13 7 4 5 12 14 14 15 10 8 9 11 9 9 8 6 7 6 7 6 5 6 5 5 4 4 4 3 3 3 3 4 5 6 6 6 6 6 6 6 6 5 6 7 6 7 7 7 7 7 8 9 9 8 9 10 11 10 9 8 8 13 16
7 8 9 7 8 7 10 9 12 4 2 5 12 8 7 7 11 13 12 12 8 12 15 16 12 9 8 5 7 14 13 13 10 9 10 8 8 8 9 10 9 8 8 7 8 5 5 4 3 3 3 3 3 3 4 5 6 6 7 6 6 6 6 6 5 5 6 6 7 8 8 7 7 7 7 8 9 9 10 10 10 10 10 12 12 13
Wind_Direction
115 113 176 178 199 204 203 173 154 145 116 103 85 101 123 108 44 2 50 97 70 79 23 41 50 33 12 354 337 334 356 29 20 18 35 64 51 52 38 31 9 16 350 309 307 341 17 27 6 8 20 4 352 41 20 28 12 7 337 348 354 324 339 14 359 352 1 344 334 349 10 307 280 286 325 320 310 310 303 320 23 19 339 334 329 356
64 34 280 212 193 185 159 133 105 90 102 116 108 108 108 105 125 314 124 28 337 112 349 24 50 21 353 346 345 344 34 16 5 10 15 7 61 53 45 23 13 318 305 356 15 6 18 15 9 10 24 25 27 344 0 14 327 322 345 9 323 332 335 6 341 291 307 254 241 256 276 271 276 292 286 305 326 320 317 317 338 26 324 321 310 315
25 217 251 191 127 116 108 119 109 117 113 100 120 124 100 88 114 37 57 18 23 79 347 43 61 18 354 356 13 25 15 340 32 100 21 25 14 31 53 58 21 14 348 351 356 1 3 3 8 20 24 15 342 301 335 332 348 358 349 336 330 325 337 332 307 277 290 266 254 199 257 212 284 250 222 223 249 273 287 290 286 245 296 294 298 305
352 282 255 149 135 115 78 115 102 83 77 116 118 111 150 185 129 89 310 28 14 118 173 130 74 30 1 345 32 24 22 8 10 38 31 41 34 8 358 24 55 57 18 3 333 333 341 349 355 9 10 343 350 6 354 354 350 342 344 338 338 332 333 317 306 291 275 245 237 238 245 259 213 260 285 268 267 289 313 292 281 271 210 227 252 263
204 242 23 134 139 132 129 136 115 114 102 29 133 128 142 161 71 130 191 92 12 39 89 58 48 7 9 3 358 354 349 37 5 10 17 9 20 356 7 55 56 47 54 23 349 345 350 358 346 325 309 325 15 347 346 335 336 325 315 313 319 319 316 310 318 321 309 333 2 350 343 357 348 344 355 351 320 303 279 279 275 262 229 222 238 245
293 287 103 97 107 105 113 117 151 124 114 113 254 183 158 140 113 104 113 93 27 16 357 87 56 4 322 349 2 331 358 20 342 28 5 357 359 6 3 346 355 25 95 76 13 320 306 320 334 346 349 6 349 354 330 318 304 314 321 332 335 333 331 326 323 309 51 41 12 2 6 348 350 331 333 328 312 318 316 295 295 298 267 255 251 249
197 336 97 149 130 113 109 134 227 137 148 132 224 142 128 124 119 122 111 77 55 111 295 57 124 70 317 11 336 338 359 18 4 19 356 1 357 357 348 344 347 352 350 5 59 65 15 341 348 339 349 339 342 332 329 327 327 328 332 333 324 313 314 317 318 298 224 1 23 2 308 265 273 288 274 251 272 274 285 296 293 284 297 275 262 266
81 20 56 63 80 85 102 80 223 138 118 169 207 131 122 116 118 114 95 99 165 223 322 51 83 120 350 334 333 321 45 16 17 3 1 353 351 352 344 340 338 341 354 351 346 351 360 333 103 315 305 319 314 309 333 350 353 359 344 335 333 315 313 315 328 350 352 335 329 349 347 301 281 254 268 282 284 273 269 287 282 291 284 284 255 257
109 25 98 75 75 98 171 205 163 144 117 206 97 108 105 112 108 96 90 87 86 105 23 340 9 65 337 295 314 13 39 0 1 353 351 356 349 349 352 350 338 334 345 0 357 350 344 337 331 329 320 295 298 329 339 327 320 324 342 338 342 343 337 354 11 9 4 3 341 320 316 317 297 280 287 301 305 307 313 300 293 287 282 282 272 245
289 148 171 137 115 143 246 144 154 134 86 213 108 83 85 77 60 83 96 91 1 66 36 323 16 106 316 297 351 350 52 359 330 327 325 346 351 338 352 348 350 352 1 5 3 350 348 338 330 328 317 338 337 315 301 310 328 349 352 354 342 330 355 10 7 352 336 1 357 356 335 325 313 322 316 325 319 322 319 315 311 311 308 303 301 284
286 315 165 71 109 170 99 44 97 94 113 141 91 91 68 50 51 35 67 88 53 34 270 269 300 128 66 290 281 3 330 273 315 321 331 349 355 346 345 353 355 358 2 4 5 12 356 331 339 345 354 330 336 343 350 352 353 346 360 351 341 334 347 7 343 337 336 343 353 341 337 328 324 324 325 329 326 325 327 325 319 317 311 305 288 289
2 354 58 30 39 66 87 68 25 102 130 114 103 111 84 18 18 25 342 33 86 289 273 302 39 88 123 307 302 243 293 294 230 299 341 343 341 343 331 345 354 3 4 8 17 9 10 12 9 9 7 356 343 353 358 349 350 352 349 359 346 342 346 341 338 339 343 342 337 340 333 328 325 324 323 321 316 316 314 315 314 315 317 312 308 295
23 12 284 15 289 108 98 84 28 14 46 91 102 91 107 157 36 219 1 10 13 158 268 296 314 26 50 213 250 312 328 315 265 258 357 343 338 340 330 343 344 360 12 15 7 11 13 14 5 5 360 5 4 358 351 350 348 354 357 1 358 347 348 334 333 349 341 345 343 342 333 325 324 324 320 314 311 308 308 309 312 315 313 313 316 309
285 287 4 339 71 358 110 109 134 67 42 120 129 127 105 119 52 195 275 312 331 301 253 280 29 99 254 302 256 280 290 274 277 11 28 5 339 323 319 336 358 15 24 13 13 17 17 10 4 8 11 10 6 6 5 2 8 4 7 4 13 355 358 354 340 341 347 343 337 334 332 330 332 327 326 318 312 309 302 299 296 297 297 300 294 295
96 355 319 2 44 124 100 165 173 159 171 155 147 153 166 153 157 198 189 177 195 196 259 316 76 251 81 238 257 244 278 287 297 37 18 14 7 319 287 356 18 17 16 16 20 19 14 9 13 16 19 18 16 15 14 15 16 19 22 19 19 13 3 8 1 350 350 343 341 340 337 336 339 332 330 325 315 310 313 310 304 297 294 290 291 288
156 206 255 250 243 358 87 3 109 102 62 48 153 57 101 204 135 120 204 132 159 126 13 1 128 196 201 247 268 319 335 26 26 33 22 9 357 353 14 14 4 8 15 17 20 12 12 13 19 22 17 18 19 17 19 20 17 24 21 25 29 22 8 8 9 8 3 358 355 359 357 352 349 344 337 333 333 326 320 314 310 307 303 298 295 293
25 45 319 318 23 70 358 207 359 133 144 237 83 165 207 153 107 107 57 40 91 58 343 182 341 316 301 337 310 7 27 17 38 30 15 5 349 10 21 12 17 21 29 24 22 13 8 10 12 17 17 18 19 22 23 23 21 25 24 26 25 19 19 15 9 8 5 1 6 3 1 360 358 356 354 345 338 334 328 321 316 310 307 301 299 298
135 230 296 34 33 73 61 65 83 24 149 93 148 215 154 120 114 119 137 334 57 127 251 77 212 287 32 286 313 13 35 12 48 24 2 8 3 42 15 24 27 29 25 30 32 29 28 24 18 9 13 19 25 26 25 23 19 26 27 26 26 22 18 8 10 9 9 8 10 6 6 4 4 359 354 352 347 344 341 340 336 330 326 323 313 307
100 46 301 302 246 283 15 97 39 32 35 158 172 153 98 199 225 0 90 103 125 230 250 338 222 253 175 239 201 233 166 98 49 19 11 5 27 38 36 32 30 33 39 30 25 24 22 22 19 17 14 17 27 26 29 23 24 27 23 20 31 23 12 11 14 12 11 14 7 6 1 2 360 359 355 351 348 349 350 347 344 340 332 328 327 321
47 139 291 300 106 317 10 57 74 320 28 60 86 67 328 93 147 105 185 167 106 179 82 273 61 245 212 214 180 193 190 123 85 356 6 289 23 15 31 41 44 46 40 32 27 28 28 29 29 28 24 22 18 25 20 23 24 23 14 17 10 8 10 11 12 8 11 2 7 1 3 2 360 357 355 349 351 352 353 347 345 342 341 337 330 329
84 104 128 280 314 22 26 2 198 155 126 118 22 354 16 25 215 111 54 72 153 158 163 147 293 271 262 205 157 178 163 133 139 138 220 246 47 351 359 49 62 52 42 32 32 29 30 27 25 24 24 25 26 24 20 15 19 17 16 15 10 12 5 3 359 2 3 3 4 9 9 3 1 357 353 351 352 353 350 348 348 346 339 335 342 338
87 13 136 312 22 5 230 249 220 189 178 168 156 194 159 130 132 128 243 59 77 111 183 134 232 268 273 160 158 143 150 130 161 133 199 201 174 51 27 44 57 62 41 41 33 35 31 29 26 25 27 28 29 22 20 15 24 24 22 14 15 18 18 3 360 358 356 5 14 20 11 6 4 0 358 357 354 353 349 346 345 341 341 344 337 341
141 135 91 64 136 98 247 276 184 228 134 160 131 141 144 78 97 98 133 230 55 55 108 131 112 278 242 151 123 129 137 138 137 142 181 165 156 13 35 44 51 61 62 42 40 33 34 37 38 41 39 35 33 30 29 30 31 28 24 22 21 26 16 16 10 4 6 12 20 16 11 10 6 360 1 359 356 352 348 342 338 342 344 341 337 335
91 63 61 320 316 299 309 315 53 93 98 41 26 61 72 172 177 164 176 172 130 167 91 22 84 247 299 94 100 103 112 114 105 137 153 141 141 43 69 54 54 58 42 44 44 40 39 41 39 39 34 35 34 31 29 26 26 26 25 22 24 24 16 19 17 16 19 15 18 17 14 10 0 2 359 0 354 352 346 342 339 339 345 340 336 338
64 307 112 71 5 335 344 349 3 327 64 83 71 320 31 95 73 112 105 62 102 204 167 131 200 255 276 106 78 103 104 108 123 115 114 133 149 108 77 56 56 60 53 47 44 41 39 34 31 26 24 24 21 25 23 23 23 22 19 21 20 16 15 17 13 18 18 16 14 13 11 6 2 1 360 357 352 351 347 344 341 342 345 342 340 337
89 175 99 123 133 140 190 278 259 260 136 292 76 11 34 94 123 110 101 80 111 210 120 147 213 259 259 116 95 110 113 107 111 109 66 104 190 119 71 57 56 61 60 56 49 44 40 34 33 30 25 22 22 23 23 23 23 21 20 19 17 16 11 11 8 15 20 18 17 11 9 2 1 359 351 349 351 350 346 347 351 345 343 346 339 336
122 97 90 156 155 184 202 208 247 112 49 73 342 57 8 57 40 97 103 99 191 178 180 228 171 149 159 157 144 147 138 146 155 141 157 129 124 82 81 72 65 63 59 57 56 50 47 39 32 31 29 28 29 25 27 26 20 19 17 16 15 13 14 10 12 15 22 18 19 13 6 0 355 350 348 348 345 346 354 354 349 348 345 341 339 339
74 65 3 113 80 205 190 239 166 133 131 195 113 124 30 36 8 100 137 217 151 103 283 252 184 153 181 165 170 160 154 158 161 162 159 145 136 117 103 90 73 65 57 64 53 50 52 44 36 32 23 24 21 24 32 28 24 19 18 15 9 10 14 8 10 19 21 19 18 13 2 356 347 350 347 348 350 354 355 352 349 346 343 345 346 341
124 108 226 93 15 25 49 33 36 74 69 110 81 44 10 10 59 130 229 174 134 150 199 191 167 173 177 177 172 171 167 168 159 170 166 152 128 116 102 89 80 69 61 57 52 52 50 45 35 29 26 20 20 25 21 22 18 17 17 16 12 14 16 1 12 18 19 19 17 4 353 349 349 346 349 349 351 355 352 348 347 348 348 349 347 343
89 56 80 127 95 31 12 9 355 115 105 42 17 17 57 87 76 110 92 34 45 249 222 159 160 159 172 179 176 176 154 135 145 135 112 109 120 120 107 99 88 77 67 63 54 51 48 44 37 32 28 23 21 16 16 16 19 17 18 14 10 16 6 6 9 19 19 20 8 357 353 350 351 351 350 354 353 349 347 349 349 349 351 351 348 344
98 288 127 41 68 5 360 14 31 41 101 88 21 41 82 97 76 52 95 102 86 43 63 111 122 129 254 161 154 104 100 100 109 120 131 132 131 128 113 105 97 87 78 66 56 46 47 42 37 33 31 23 18 14 11 9 10 18 27 17 15 13 360 5 17 22 21 13 3 359 357 359 355 351 356 350 349 350 350 349 348 352 355 351 349 350
68 164 47 80 77 353 350 26 18 56 72 83 48 34 95 88 92 172 110 198 117 136 121 101 116 184 204 122 98 113 123 139 143 140 136 136 145 131 119 116 107 98 81 72 58 51 41 37 30 27 22 15 16 15 18 15 17 28 20 10 14 357 357 21 22 19 15 10 6 8 4 359 354 357 355 354 353 350 346 348 354 356 353 353 352 345
104 133 113 90 82 292 288 55 12 16 45 25 294 227 182 95 146 133 270 80 199 143 120 151 211 163 150 147 126 136 142 141 141 154 143 141 149 139 131 127 123 111 99 78 70 60 48 42 33 29 20 22 16 17 11 13 32 26 8 13 360 3 21 19 19 14 15 10 9 6 2 358 357 356 357 355 351 350 352 353 357 358 354 350 342 342
62 111 114 126 111 206 334 343 1 59 58 237 231 209 163 144 190 144 194 173 159 144 192 201 153 132 133 148 149 162 162 170 163 161 111 152 146 136 120 123 126 127 109 87 80 76 59 42 35 28 31 25 18 21 11 30 36 18 11 14 9 21 14 20 18 18 12 8 7 2 359 359 359 358 355 351 351 351 355 358 355 350 350 349 351 353
114 84 106 144 102 162 166 16 51 271 233 244 279 245 200 172 107 100 356 159 156 214 134 109 125 140 150 138 149 146 123 91 75 111 103 84 137 135 138 135 134 131 119 110 88 73 68 59 39 33 27 19 14 17 24 27 16 14 28 14 19 16 17 17 17 16 11 8 1 1 1 360 357 352 351 349 351 352 356 358 353 353 352 349 349 347
140 115 165 40 93 67 57 49 123 239 238 287 319 343 177 110 114 87 35 305 243 212 160 146 138 127 121 112 95 109 119 112 88 54 65 77 122 143 131 138 147 135 123 132 111 83 65 51 52 42 32 14 32 30 31 22 4 36 26 19 23 13 15 14 18 15 8 5 2 2 359 356 352 349 349 350 351 354 356 355 353 350 346 345 345 347
128 97 101 94 335 146 184 143 210 304 330 315 340 223 176 157 174 149 173 238 219 194 165 143 128 122 109 109 121 118 117 97 82 45 10 111 140 123 138 145 152 141 137 135 101 87 74 66 58 41 46 46 39 33 20 5 23 36 28 22 12 11 12 16 17 10 4 2 359 358 356 354 352 349 350 350 352 353 354 353 349 347 348 346 347 346
106 142 212 112 251 122 130 47 7 21 276 266 232 265 252 144 102 105 107 269 207 218 167 148 150 140 122 125 131 134 123 104 125 213 257 235 117 115 76 93 97 117 121 104 82 74 64 60 61 47 58 53 42 24 9 11 25 38 32 18 9 11 14 17 11 2 1 0 358 356 355 354 352 349 350 351 353 349 349 350 346 346 346 347 343 343
40 76 113 119 137 82 67 126 200 162 241 219 226 219 231 176 123 124 66 263 246 175 167 161 149 154 149 147 153 145 131 161 199 208 217 180 148 133 125 116 117 122 96 87 92 82 68 61 67 63 54 48 38 4 2 4 26 41 30 17 8 12 16 11 2 2 1 357 355 353 354 352 352 352 350 353 352 349 350 351 345 335 342 346 345 343
57 4 54 61 104 160 138 120 224 196 189 338 230 233 213 155 95 63 358 278 225 175 162 163 157 159 163 155 157 162 162 181 207 211 184 166 153 148 144 142 128 115 99 88 66 74 74 67 68 52 45 38 15 348 355 2 40 38 26 12 6 16 10 360 355 354 355 355 355 353 353 352 353 352 353 351 351 349 350 346 345 346 345 346 349 344
58 25 45 162 156 144 128 254 338 300 268 263 221 212 160 151 78 83 194 241 192 166 167 166 168 161 156 159 161 177 207 197 162 139 138 133 114 99 84 97 124 118 111 93 91 86 77 65 70 69 54 28 359 356 1 27 44 31 16 10 16 11 355 344 347 357 358 356 355 354 354 353 355 352 351 351 350 346 346 350 348 344 351 349 348 350
25 93 343 86 102 152 190 132 218 240 239 176 339 152 184 105 163 212 235 215 155 171 167 164 162 167 162 169 184 156 138 138 119 123 129 138 138 137 130 124 105 82 74 85 93 94 86 78 71 63 47 21 12 12 20 32 43 25 13 15 14 353 338 342 353 360 358 358 358 354 354 354 355 354 351 350 351 352 353 351 351 352 352 353 351 353
193 122 183 154 160 71 38 69 16 250 249 139 120 76 328 141 230 206 151 34 186 161 156 166 164 171 167 154 100 129 120 122 129 132 133 128 129 139 140 135 125 118 110 100 84 78 100 87 73 62 47 15 20 24 23 29 38 23 17 21 357 339 342 349 356 1 358 357 358 356 356 354 354 353 352 354 355 352 354 351 353 354 356 357 356 356
202 119 214 265 188 145 139 142 199 213 190 173 151 174 199 193 185 154 131 92 134 164 159 154 172 167 169 152 139 131 132 121 112 126 121 121 120 113 111 112 104 97 88 78 98 106 99 94 86 76 43 28 28 27 22 24 28 23 23 8 337 342 346 354 359 358 359 357 355 356 0 359 356 353 355 356 355 354 356 357 357 357 0 358 360 360
222 167 179 171 211 136 192 211 244 231 216 215 62 319 237 197 161 169 147 154 147 190 171 157 159 160 154 141 134 136 133 145 141 144 139 148 143 144 140 138 125 121 118 114 103 97 93 104 98 81 51 30 25 16 20 20 30 26 19 348 346 352 355 355 359 359 1 357 353 354 351 353 353 357 355 353 353 356 358 355 358 1 0 359 4 8
313 168 172 88 232 253 260 199 258 307 241 249 289 263 249 146 153 138 143 142 190 158 167 162 154 148 142 143 131 143 141 145 135 133 126 135 135 126 112 103 93 99 101 101 100 105 107 96 83 74 63 30 17 13 15 18 28 32 354 341 354 354 354 354 359 2 359 351 350 348 345 349 352 0 358 357 356 357 354 355 0 2 357 1 6 5
261 143 77 115 268 109 246 325 289 231 307 275 270 10 40 115 172 162 170 156 146 139 119 140 152 155 154 154 146 145 143 143 132 131 132 131 129 134 136 127 123 127 130 125 139 125 104 98 84 77 67 47 6 10 9 16 18 14 352 358 354 354 352 352 3 360 351 350 348 346 348 351 352 2 4 3 356 356 359 358 356 0 359 354 1 1
258 167 76 125 126 142 231 260 265 261 243 241 211 170 162 132 88 80 93 89 120 115 129 139 124 122 136 139 143 140 144 146 137 142 140 139 141 142 140 134 128 111 104 122 129 116 103 99 103 98 77 52 3 5 5 9 7 359 0 356 358 353 350 355 4 1 348 348 349 348 349 350 346 358 2 2 358 356 351 356 356 354 358 356 2 3
168 127 204 156 126 267 292 280 272 18 2 262 260 247 208 163 130 108 111 121 125 117 109 91 129 154 153 145 142 136 138 151 145 145 140 140 138 143 144 138 132 128 131 126 128 122 121 126 116 108 85 53 5 12 12 6 1 2 2 358 357 357 356 359 359 354 350 350 356 357 354 352 352 358 357 356 356 354 352 356 353 351 346 357 6 10
110 176 133 87 76 189 193 193 169 122 232 235 229 205 161 165 130 122 117 117 127 126 130 122 94 69 117 142 146 143 142 146 149 141 141 149 150 148 138 127 126 122 119 122 117 120 115 115 119 110 89 49 26 23 19 9 3 360 359 359 357 360 8 356 353 2 358 359 2 358 357 356 354 357 358 354 351 350 348 350 350 351 360 353 1 4
167 182 156 170 168 219 232 194 183 144 159 216 184 166 150 154 142 139 149 147 150 144 139 128 119 115 126 140 149 141 141 145 153 141 133 145 155 155 147 138 132 131 132 133 120 114 119 120 111 105 85 58 42 28 15 13 5 358 357 1 357 5 6 354 5 6 360 3 8 2 358 353 353 356 358 355 352 354 359 349 344 351 355 0 11 7